User: anonymous   Login
Location: Unspecified
(0.0000°N, 0.0000°E)
Time: 01:20:46
(UTC+00:00)
Language:

IGS 5A - Orbit

View from above orbital plane
View from above orbital plane
View from above satellite
View from above satellite

Ground track
Ground track

The orbit data is extracted from the following two-line orbital elements,

1 36104U 09066A   23086.81550367 0.00004000  00000-0  36127-3 0    08
2 36104  97.4615 122.3831 0003490 318.8834  41.1164 14.95555106    07
Epoch (UTC): 27 March 2023 19:34:19
Eccentricity: 0.0003490
inclination: 97.4615°
perigee height: 578 km
apogee height: 583 km
right ascension of ascending node: 122.3831°
argument of perigee: 318.8834°
revolutions per day: 14.95555106
mean anomaly at epoch: 41.1164°
orbit number at epoch: 0

The dashed part of the orbit path shows where the satellite is in the earth's shadow,  

DLR